EW5790 Weather Reports


Display with metric or nautical units.
time (UTC)temp
F
wind
direction
speed
MPH
gust
MPH
rain 1hr
in
rain 24hr
in
rain mn
in
humidity
%
barometer
mb
20260504044557 42 128 0.0 0.0 0.00 0.00 0.00 23 1016.1
20260504043058 43 128 0.0 0.0 0.00 0.00 0.00 31 1016.1
20260504041549 44 128 0.0 0.0 0.00 0.00 0.00 36 1016.1
20260504040048 45 128 0.0 0.0 0.00 0.00 0.00 42 1016.2
20260504034550 45 128 0.0 0.0 0.00 0.00 0.00 47 1016.4
20260504033037 45 128 0.0 0.0 0.00 0.00 0.00 54 1016.6
20260504031534 46 128 0.0 0.0 0.00 0.00 0.00 61 1016.6
20260504030034 47 128 0.0 0.0 0.00 0.00 0.00 61 1016.4
20260504024524 47 161 0.0 0.0 0.00 0.00 0.00 63 1016.3
20260504023019 48 164 0.0 0.0 0.00 0.00 0.00 65 1016.2
20260504021515 48 164 0.0 0.0 0.00 0.00 0.00 65 1016.0
20260504020011 49 254 0.0 0.0 0.00 0.00 0.00 66 1015.9
20260504014506 49 254 0.0 0.0 0.00 0.00 0.00 67 1015.7
20260504013002 50 254 0.0 0.0 0.00 0.00 0.00 68 1015.7
20260504011558 52 254 0.0 0.0 0.00 0.00 0.00 68 1015.6
20260504010055 53 254 0.0 0.0 0.00 0.00 0.00 66 1015.6
20260504004551 55 254 0.0 0.0 0.00 0.00 0.00 63 1015.5
20260504003045 58 254 0.0 0.0 0.00 0.00 0.00 57 1015.3
20260504001543 60 254 0.0 0.0 0.00 0.00 0.00 51 1015.3
20260504000036 61 258 0.0 0.0 0.00 0.00 0.00 44 1015.5
20260503234531 62 236 0.0 0.0 0.00 0.00 0.00 45 1015.7
20260503233027 63 256 0.0 0.0 0.00 0.00 0.00 46 1015.6
20260503231525 63 229 0.0 0.0 0.00 0.00 0.00 45 1015.9
20260503230034 63 259 0.0 0.0 0.00 0.00 0.00 43 1016.4
20260503224514 64 296 0.0 0.0 0.00 0.00 0.00 42 1016.6
20260503223011 64 316 0.0 0.0 0.00 0.00 0.00 40 1016.4
20260503221504 64 273 0.0 0.0 0.00 0.00 0.00 40 1016.5
20260503220101 63 270 0.0 0.0 0.00 0.00 0.00 41 1016.7
20260503214556 64 253 0.0 0.0 0.00 0.00 0.00 41 1016.8
20260503213052 64 241 0.0 0.0 0.00 0.00 0.00 44 1016.9
20260503211550 64 169 0.0 0.0 0.00 0.00 0.00 43 1017.3
20260503210043 64 332 0.0 0.0 0.00 0.00 0.00 43 1017.7
20260503204541 64 275 0.0 0.0 0.00 0.00 0.00 42 1018.1
20260503203038 65 332 0.0 0.0 0.00 0.00 0.00 43 1018.0
20260503201530 64 294 0.0 0.0 0.00 0.00 0.00 46 1018.2
20260503200028 64 111 0.0 0.0 0.00 0.00 0.00 44 1018.6
20260503194522 64 254 0.0 0.0 0.00 0.00 0.00 40 1018.8
20260503193033 64 261 0.0 0.0 0.00 0.00 0.00 40 1019.0
20260503191531 63 291 0.0 0.0 0.00 0.00 0.00 40 1019.2
20260503190023 63 192 0.0 0.0 0.00 0.00 0.00 41 1019.5
20260503184504 63 343 0.0 0.0 0.00 0.00 0.00 39 1019.8
20260503183100 62 234 0.0 0.0 0.00 0.00 0.00 40 1019.8
20260503181556 61 186 0.0 0.0 0.00 0.00 0.00 40 1020.0
20260503180058 61 343 0.0 0.0 0.00 0.00 0.00 39 1020.3
20260503174552 61 248 0.0 0.0 0.00 0.00 0.00 44 1020.6
20260503173042 60 304 0.0 0.0 0.00 0.00 0.00 41 1020.9
20260503171537 60 285 0.0 0.0 0.00 0.00 0.00 40 1021.0
20260503081600 33 101 0.0 0.0 0.00 0.01 0.00 1 1020.7
20260503080104 33 101 0.0 0.0 0.00 0.01 0.00 1 1020.6